User: anonymous   Login
Location: Vallejo Observatory
(38.1221°N, 122.2109°W)
Time: 16:47:25
(UTC-08:00)
Language:

MOS 1 Rocket - Orbit

View from above orbital plane
View from above orbital plane
View from above satellite
View from above satellite

Ground track
Ground track

The orbit data is extracted from the following two-line orbital elements,

1 17528U 87018B   17015.99407317  .00000097  00000-0  30346-4 0  9997
2 17528  97.4299 350.4913 0153687  54.5800 346.6370 14.50730998577815
Epoch (UTC): 15 January 2017 23:51:27
Eccentricity: 0.0153687
inclination: 97.4299°
perigee height: 614 km
apogee height: 832 km
right ascension of ascending node: 350.4913°
argument of perigee: 54.5800°
revolutions per day: 14.50730998
mean anomaly at epoch: 346.6370°
orbit number at epoch: 57781

The dashed part of the orbit path shows where the satellite is in the earth's shadow,  

DLR